GFSFLT1_850_dewp_129.txt.gz
Dewpoint
-3 -3 -3 -4 -4 -5 -6 -7 -8 -9 -10 -10 -10 -11 -11 -12 -13 -14 -14 -12 -5 3 10 11 9 7 12 12 11 11 11 12
-4 -4 -5 -6 -6 -6 -7 -8 -8 -9 -10 -11 -13 -13 -14 -15 -16 -15 -12 -12 -12 -7 5 7 9 10 10 11 12 12 12 11
-5 -5 -6 -6 -6 -6 -7 -7 -7 -7 -7 -7 -7 -8 -10 -11 -12 -12 -10 -8 -8 -8 -4 5 9 10 9 9 12 12 12 12
-5 -6 -6 -6 -6 -6 -6 -6 -6 -6 -6 -6 -6 -6 -6 -6 -7 -8 -7 -6 -6 -6 -6 -2 6 9 11 8 9 9 12 12
-6 -6 -6 -6 -6 -6 -6 -5 -5 -5 -5 -4 -4 -4 -4 -4 -4 -5 -5 -5 -5 -5 -5 -5 -0 7 9 10 8 9 9 10
-6 -6 -6 -6 -6 -6 -6 -5 -5 -5 -5 -4 -4 -4 -4 -3 -3 -3 -3 -3 -3 -3 -4 -4 -5 1 6 10 10 8 8 9
-6 -6 -6 -6 -6 -6 -5 -5 -5 -5 -5 -5 -4 -4 -4 -4 -3 -2 -2 -2 -1 -1 -2 -3 -4 -4 1 8 10 10 8 11
-6 -6 -6 -6 -6 -6 -6 -5 -5 -5 -5 -5 -5 -5 -5 -4 -3 -3 -1 -1 -1 -0 -0 -2 -3 -4 -3 2 9 10 10 12
-6 -6 -6 -6 -6 -6 -6 -6 -6 -6 -6 -6 -6 -6 -5 -5 -4 -4 -3 -1 -1 -0 0 1 -1 -2 -2 -3 1 7 8 9
-6 -6 -6 -6 -6 -6 -6 -6 -7 -7 -7 -7 -7 -6 -6 -5 -4 -4 -3 -2 -2 -1 -0 0 1 1 1 0 -3 -0 4 7
-6 -6 -6 -6 -6 -6 -6 -6 -7 -7 -7 -7 -7 -6 -6 -6 -5 -4 -3 -3 -2 -1 -0 2 3 2 2 2 1 -1 -1 -0
-6 -6 -6 -5 -6 -6 -6 -6 -6 -7 -7 -7 -8 -7 -7 -6 -5 -5 -4 -3 -2 -0 1 2 3 3 4 4 4 3 1 -0
-6 -5 -5 -5 -5 -5 -5 -6 -6 -7 -7 -7 -8 -8 -8 -7 -6 -5 -4 -4 -2 -1 1 2 3 4 4 4 5 6 6 6
-6 -6 -6 -11 -12 -6 -4 -5 -5 -6 -7 -7 -8 -8 -8 -8 -6 -6 -5 -4 -3 -2 0 2 3 3 4 4 4 5 7 7
-9 -14 -15 -18 -20 -21 -12 -10 -6 -5 -5 -6 -7 -8 -8 -7 -6 -5 -5 -5 -4 -4 -3 -2 -1 0 2 3 4 5 6 6
-16 -19 -20 -23 -26 -29 -28 -24 -19 -9 -6 -5 -6 -6 -6 -6 -6 -5 -4 -4 -4 -4 -3 -3 -3 -3 -1 1 1 3 5 5
-19 -21 -22 -25 -27 -31 -32 -31 -27 -28 -28 -22 -12 -6 -4 -4 -4 -3 -3 -3 -3 -3 -3 -3 -3 -4 -2 -3 -1 -0 2 2
-21 -21 -22 -23 -25 -27 -33 -34 -32 -32 -33 -32 -30 -29 -28 -23 -15 -10 -6 -5 -4 -4 -4 -5 -5 -4 -3 -3 -3 -3 -2 -1
-23 -22 -21 -20 -22 -23 -25 -28 -33 -35 -36 -35 -34 -34 -33 -33 -32 -32 -31 -30 -27 -25 -19 -12 -7 -6 -4 -3 -3 -3 -3 -3

GFSFLT1_850_dewp_132.txt.gz
Dewpoint
-4 -4 -5 -5 -5 -6 -6 -6 -7 -7 -8 -9 -10 -11 -11 -11 -12 -12 -12 -13 -13 -14 -13 -11 -1 2 -4 -2 8 12 12 11
-5 -5 -6 -6 -6 -7 -7 -7 -7 -7 -8 -8 -9 -10 -10 -11 -11 -11 -11 -10 -10 -11 -11 -10 -10 -4 5 8 6 8 7 11
-5 -6 -6 -6 -7 -7 -7 -7 -7 -7 -7 -7 -6 -7 -7 -7 -8 -8 -8 -8 -8 -8 -8 -10 -8 -8 3 8 9 8 7 6
-6 -6 -6 -6 -6 -6 -6 -6 -6 -6 -6 -6 -6 -5 -6 -5 -6 -6 -6 -6 -6 -6 -6 -7 -8 -6 -4 8 10 10 8 8
-6 -6 -6 -6 -6 -6 -6 -5 -5 -5 -4 -4 -4 -4 -4 -4 -4 -4 -4 -4 -4 -4 -4 -5 -6 -6 -6 -1 9 11 11 9
-6 -6 -6 -6 -5 -5 -6 -5 -5 -5 -5 -5 -4 -4 -4 -4 -4 -3 -3 -3 -2 -2 -2 -3 -4 -5 -5 -5 4 10 11 8
-6 -6 -5 -6 -5 -6 -6 -5 -6 -6 -6 -6 -6 -6 -6 -5 -5 -4 -3 -2 -1 -1 -1 -0 -1 -2 -4 -4 -3 5 10 10
-6 -5 -5 -5 -5 -5 -6 -5 -6 -6 -6 -6 -7 -7 -6 -6 -5 -5 -4 -3 -2 -1 -1 -0 0 -0 -2 -3 -3 4 9 10
-5 -5 -5 -5 -5 -6 -5 -6 -5 -6 -7 -7 -7 -7 -7 -6 -6 -5 -4 -4 -3 -2 -1 -1 -1 0 0 -1 -3 -1 7 9
-5 -5 -5 -5 -5 -5 -5 -5 -6 -7 -7 -7 -7 -7 -7 -7 -6 -6 -5 -4 -3 -3 -2 -1 -1 -0 1 1 -1 -1 -0 6
-5 -5 -5 -5 -5 -5 -5 -5 -6 -6 -7 -7 -7 -7 -8 -7 -7 -6 -6 -5 -4 -3 -2 -0 0 2 2 2 2 3 1 -0
-5 -5 -5 -6 -5 -4 -4 -4 -5 -6 -7 -8 -8 -8 -8 -8 -7 -7 -6 -6 -5 -3 -2 -0 1 2 1 2 3 4 4 3
-6 -5 -8 -13 -16 -9 -5 -5 -5 -5 -6 -7 -7 -7 -7 -8 -8 -7 -7 -6 -6 -5 -3 -1 1 2 2 3 3 3 4 5
-7 -10 -16 -21 -25 -24 -20 -16 -7 -5 -6 -6 -6 -6 -7 -8 -8 -7 -6 -6 -6 -6 -4 -3 -1 0 2 2 3 4 4 5
-13 -18 -22 -26 -29 -29 -27 -27 -25 -20 -9 -6 -5 -6 -7 -6 -6 -6 -5 -6 -6 -6 -6 -5 -4 -2 -0 0 1 2 3 3
-18 -21 -26 -29 -31 -32 -31 -29 -29 -29 -28 -25 -16 -8 -6 -6 -6 -6 -5 -5 -5 -5 -5 -5 -5 -4 -3 -2 -1 -1 -1 0
-20 -22 -26 -28 -29 -30 -33 -33 -33 -33 -33 -31 -30 -28 -27 -24 -19 -15 -11 -8 -6 -5 -5 -4 -5 -5 -3 -2 -2 -2 -2 -2
-21 -22 -25 -24 -26 -26 -31 -33 -34 -35 -34 -34 -34 -32 -30 -29 -27 -26 -26 -26 -25 -20 -13 -8 -6 -5 -4 -4 -3 -2 -3 -4
-23 -23 -23 -22 -22 -23 -27 -28 -30 -33 -35 -36 -35 -34 -32 -31 -31 -29 -29 -29 -31 -30 -28 -27 -26 -22 -15 -7 -5 -4 -4 -3

GFSFLT1_850_dewp_135.txt.gz
Dewpoint
-5 -5 -6 -6 -6 -7 -7 -7 -7 -7 -7 -8 -8 -8 -9 -9 -9 -9 -10 -10 -11 -11 -12 -13 -12 -11 -9 -6 -1 2 -2 5
-5 -6 -6 -6 -7 -7 -7 -7 -7 -8 -8 -8 -8 -8 -8 -8 -8 -8 -8 -8 -8 -8 -9 -10 -11 -10 -8 -10 -10 -5 1 8
-5 -6 -6 -6 -6 -7 -7 -7 -6 -6 -6 -6 -6 -6 -7 -7 -7 -7 -7 -6 -7 -7 -7 -7 -8 -9 -8 -7 -7 1 5 6
-5 -5 -6 -6 -6 -6 -6 -6 -5 -5 -5 -5 -5 -4 -4 -5 -5 -5 -5 -5 -5 -5 -5 -5 -6 -6 -8 -7 -7 -3 8 9
-5 -5 -6 -5 -5 -5 -5 -5 -5 -5 -5 -5 -5 -4 -4 -4 -4 -4 -3 -3 -3 -3 -3 -3 -4 -4 -5 -7 -6 -5 6 10
-5 -5 -5 -5 -5 -5 -5 -5 -5 -5 -5 -6 -6 -6 -6 -6 -5 -4 -4 -3 -3 -2 -2 -2 -1 -2 -3 -4 -6 -5 -3 9
-5 -5 -5 -5 -5 -5 -5 -5 -5 -5 -6 -7 -7 -7 -7 -7 -6 -6 -5 -4 -4 -3 -2 -1 -1 -1 -0 -2 -3 -4 -4 2
-6 -5 -5 -5 -4 -4 -5 -4 -5 -6 -6 -7 -8 -8 -7 -7 -7 -6 -6 -5 -4 -3 -3 -2 -1 -0 -0 0 -1 -1 -3 -1
-5 -5 -5 -5 -4 -4 -4 -4 -5 -5 -6 -7 -8 -8 -8 -7 -7 -7 -6 -6 -5 -4 -3 -3 -2 -1 -0 -0 -0 0 -1 -2
-5 -5 -5 -5 -4 -4 -4 -4 -5 -5 -6 -8 -8 -8 -8 -8 -8 -7 -7 -6 -6 -5 -4 -3 -2 -1 -1 -1 -0 0 1 -2
-5 -5 -5 -7 -9 -5 -5 -5 -5 -5 -6 -7 -8 -8 -8 -8 -7 -7 -7 -7 -7 -6 -5 -3 -2 -1 -0 1 0 1 2 2
-5 -5 -7 -13 -19 -20 -18 -13 -7 -5 -5 -6 -7 -7 -8 -7 -7 -7 -7 -7 -7 -6 -5 -4 -2 -1 0 1 1 1 2 3
-6 -6 -12 -21 -27 -28 -27 -25 -19 -7 -5 -5 -6 -6 -6 -7 -7 -7 -7 -7 -7 -7 -6 -4 -3 -2 -0 1 2 2 3 3
-7 -11 -19 -28 -31 -31 -30 -30 -29 -26 -10 -6 -5 -5 -5 -6 -6 -7 -7 -7 -7 -7 -7 -5 -4 -3 -2 -1 0 2 2 2
-10 -17 -25 -30 -34 -34 -32 -31 -31 -31 -29 -27 -18 -11 -6 -5 -5 -5 -6 -6 -6 -6 -6 -6 -5 -4 -3 -2 -2 -1 -0 0
-15 -22 -27 -31 -34 -35 -34 -32 -34 -34 -33 -30 -28 -27 -27 -24 -16 -8 -6 -5 -5 -5 -5 -5 -5 -4 -4 -3 -2 -2 -2 -1
-18 -23 -28 -30 -31 -32 -34 -33 -34 -34 -34 -33 -30 -29 -31 -31 -30 -29 -28 -25 -18 -10 -7 -6 -5 -5 -4 -3 -3 -3 -3 -2
-20 -23 -27 -26 -27 -28 -31 -31 -34 -35 -33 -32 -33 -32 -32 -32 -33 -33 -32 -31 -32 -31 -31 -29 -26 -17 -10 -7 -4 -3 -3 -4
-22 -24 -25 -23 -24 -25 -27 -29 -32 -33 -33 -32 -31 -31 -32 -33 -34 -34 -34 -33 -31 -32 -31 -33 -33 -31 -30 -30 -30 -27 -21 -14

GFSFLT1_850_dewp_138.txt.gz
Dewpoint
-4 -5 -5 -6 -6 -7 -7 -7 -7 -8 -8 -8 -8 -8 -8 -8 -7 -8 -8 -8 -8 -9 -9 -10 -10 -10 -10 -9 -12 3 -1 -2
-4 -4 -4 -5 -5 -6 -6 -7 -7 -7 -7 -7 -7 -6 -6 -6 -7 -7 -7 -7 -7 -7 -7 -7 -7 -7 -8 -4 0 -2 -6 -1
-4 -4 -4 -4 -5 -6 -6 -6 -6 -5 -5 -5 -4 -4 -4 -4 -3 -3 -4 -5 -5 -5 -5 -6 -5 -4 -4 -3 -2 2 5 8
-4 -4 -4 -5 -5 -5 -6 -5 -5 -5 -4 -4 -4 -4 -4 -3 -3 -3 -3 -3 -3 -3 -3 -2 -3 -2 -1 0 3 4 4 6
-4 -4 -4 -4 -5 -5 -5 -4 -4 -4 -5 -5 -5 -4 -4 -4 -4 -4 -3 -4 -4 -3 -3 -2 -2 -1 0 1 2 3 3 4
-4 -4 -5 -5 -5 -4 -4 -4 -4 -5 -5 -5 -5 -5 -5 -5 -5 -5 -5 -4 -4 -4 -3 -2 -2 -1 -0 1 1 2 3 3
-4 -4 -5 -5 -4 -4 -4 -4 -4 -4 -5 -5 -6 -7 -7 -6 -6 -6 -5 -5 -5 -4 -4 -3 -3 -2 -1 -0 0 0 1 3
-4 -5 -5 -5 -4 -4 -4 -4 -4 -5 -5 -6 -7 -7 -8 -7 -7 -7 -7 -6 -6 -6 -5 -4 -3 -3 -2 -1 -0 0 1 1
-4 -5 -5 -5 -5 -4 -4 -4 -5 -5 -5 -6 -7 -8 -8 -8 -8 -8 -8 -7 -7 -6 -5 -5 -4 -3 -2 -1 -1 -0 -0 1
-4 -5 -5 -7 -8 -9 -12 -8 -9 -6 -5 -6 -7 -8 -8 -9 -8 -8 -8 -7 -7 -7 -6 -5 -4 -3 -2 -1 -1 -0 -0 -0
-4 -5 -5 -9 -15 -17 -23 -23 -19 -8 -5 -5 -6 -6 -7 -8 -8 -8 -8 -8 -7 -7 -6 -5 -4 -3 -2 -0 1 1 0 0
-5 -5 -7 -14 -23 -28 -19 -33 -31 -17 -7 -5 -5 -5 -6 -6 -7 -8 -8 -8 -8 -8 -7 -6 -5 -3 -1 -0 1 1 1 1
-5 -6 -9 -22 -26 -29 -28 -33 -33 -31 -19 -10 -6 -5 -5 -6 -6 -7 -8 -8 -8 -8 -7 -6 -5 -4 -3 -2 -1 -0 0 1
-6 -7 -14 -27 -32 -29 -33 -34 -34 -32 -31 -30 -26 -19 -9 -6 -6 -6 -6 -6 -7 -7 -7 -6 -5 -4 -4 -3 -2 -2 -1 -1
-7 -9 -19 -29 -31 -33 -34 -35 -34 -33 -33 -33 -31 -30 -26 -24 -15 -10 -6 -6 -6 -7 -7 -7 -6 -5 -4 -4 -3 -3 -3 -2
-7 -9 -21 -29 -29 -33 -34 -34 -34 -34 -35 -34 -33 -31 -29 -29 -28 -28 -26 -21 -15 -12 -9 -6 -6 -6 -5 -4 -4 -4 -4 -4
-8 -13 -13 -15 -19 -33 -34 -35 -34 -33 -35 -35 -33 -33 -34 -34 -31 -33 -33 -32 -31 -32 -30 -31 -25 -15 -10 -6 -5 -5 -4 -4
-10 -13 -13 -15 -23 -30 -32 -33 -34 -33 -34 -33 -33 -34 -35 -36 -35 -34 -34 -33 -34 -35 -37 -37 -36 -34 -33 -34 -30 -22 -18 -14
-11 -12 -12 -19 -21 -28 -29 -30 -31 -32 -33 -31 -29 -32 -34 -36 -36 -36 -34 -33 -34 -35 -36 -37 -38 -37 -38 -38 -36 -35 -34 -32